Simultaneous Nadir Overpasses (SNOs) Predictions

Prediction of SNOs between AQUA and NOAA-19 Satellite Orbit:

Table of predicted SNOs for the next 14.0 days since TLE Epoch: 5/13/2016
Index Date (AQUA) Time (AQUA) Lat,Lon (AQUA) SZA (AQUA ) Date (NOAA-19) Time (NOAA-19) Lat,Lon (NOAA-19) SZA (NOAA-19 ) Distance(km) Time Diff (sec)
1 05/15/2016 08:52:17 80.82, 8.32 63.81 05/15/2016 08:51:22 80.82, 8.41 63.82 1.87 55
2 05/15/2016 09:41:42 -80.79, 176.40 116.28 05/15/2016 09:42:25 -80.79, 176.27 116.28 2.45 43
3 05/17/2016 14:25:56 -80.80, 105.16 116.74 05/17/2016 14:25:30 -80.81, 105.05 116.71 2.04 26
4 05/17/2016 15:15:22 80.79, -86.99 63.22 05/17/2016 15:16:26 80.79, -87.05 63.21 1.10 64
5 05/19/2016 19:59:36 80.81,-158.31 62.80 05/19/2016 19:59:31 80.80,-158.16 62.79 2.68 5
6 05/22/20
